Back to catalog

COSMOS 1017

AliveNavigationLEO
NORAD 10934·PAYLOAD·🇷🇺 Russia

Launched Jun 7, 1978 from Plesetsk Cosmodrome

Loading…

Next Passes (next 24 hours)

TLE

FreshSource: Space-Track

Epoch: Sep 14, 2026, 14:07 UTC

1 10934U 78056E   26257.58885184 -.00000001  00000-0  96688-4 0  9995
2 10934  74.0275 310.4500 0020924  63.5618 104.3939 12.47612961198425

Track COSMOS 1017 in real time with AllMySat

Download on the App Store